Location: Buena Vista Beach
(41.8098°N, 81.1279°W)
Time: 23:19:35
(UTC+00:00)

Feng Yun 1-1 Rocket - Pass Details

Date: 29 October 2020
Orbit: 829 x 934 km, 99.2° (Epoch: 29 November)

Event Time Altitude Azimuth Distance (km) Brightness Sun altitude
Rises 23:27:36 0° 165° (SSE) 3,554 7.4 -12.8°
Reaches altitude 10° 23:30:01 10° 166° (SSE) 2,623 6.7 -13.2°
Maximum altitude 23:35:54 85° 254° (WSW) 943 4.5 -14.3°
Drops below altitude 10° 23:41:53 10° 345° (NNW) 2,649 6.9 -15.4°
Sets 23:44:19 0° 346° (NNW) 3,591 7.6 -15.9°
